Skip Page Navigation
NASA JPL Caltech
NASA Logo - Jet Propulsion Laboratory + View the NASA Portal
+ Center for Near-Earth Object Studies
JPL Home Earth Solar System Stars & Galaxies Technology
JPL Solar System Dynamics
BODIES ORBITS EPHEMERIDES TOOLS PHYSICAL DATA DISCOVERY FAQ SITE MAP
IMPORTANT: The SSD Announcement email list is now available. Major changes are coming in the near future, including possible hostname and/or URL changes. To be notified of such changes, subscribe to this email list.

Please visit this page for more details.


JPL Small-Body Database Browser
Search: [ help ]  
1982 Cline (1975 VA)
Classification: Main-belt Asteroid          SPK-ID: 2001982
Ephemeris | Orbit Diagram | Orbital Elements | Mission Design | Physical Parameters | Discovery Circumstances | Close-Approach Data ]

[ show orbit diagram ]
Orbital Elements at Epoch 2459000.5 (2020-May-31.0) TDB
Reference: JPL 27 (heliocentric ecliptic J2000)
 Element Value Uncertainty (1-sigma)   Units 
e .2496377906069614 3.7362e-08  
a 2.309966300570445 5.8567e-09 au
q 1.733311416919503 8.5451e-08 au
i 6.841920517612229 4.2739e-06 deg
node 42.35519880118645 3.1104e-05 deg
peri 279.5333363243053 3.221e-05 deg
M 299.6733157142505 9.0876e-06 deg
tp 2459215.388833474214
(2020-Dec-31.88883347)
3.269e-05 TDB
period 1282.350935852631
3.51
4.8769e-06
1.335e-08
d
yr
n .2807343839622476 1.0677e-09 deg/d
Q 2.886621184221386 7.3188e-09 au
  Orbit Determination Parameters
   # obs. used (total)      2446  
   data-arc span      22860 days (62.59 yr)  
   first obs. used      1957-06-06  
   last obs. used      2020-01-07  
   planetary ephem.      DE431  
   SB-pert. ephem.      SB431-N16  
   condition code      0  
   norm. resid. RMS      .43308  
   source      ORB  
   producer      Otto Matic  
   solution date      2020-Jan-28 18:21:00  

Additional Information
 Earth MOID = .737562 au 
 Jupiter MOID = 2.47968 au 
 T_jup = 3.534 
[ show covariance matrix ]

Ephemeris | Orbit Diagram | Orbital Elements | Mission Design | Physical Parameters | Discovery Circumstances | Close-Approach Data ]

Physical Parameter Table
Parameter Symbol Value Units Sigma Reference Notes
absolute magnitude H 12.8   n/a MPO384767  
diameter diameter 8.100 km 0.030 urn:nasa:pds:neowise_diameters_albedos::2.0[mainbelt] (http://adsabs.harvard.edu/abs/2014ApJ...791..121M)  
rotation period rot_per 5.78 h n/a LCDB (Rev. 2019-January); Warner et al., 2009 Published Reference List:
[Brinsfield, J.W. (2011) Minor Planet Bull. 38, 73-74.]
geometric albedo albedo 0.194   0.028 urn:nasa:pds:neowise_diameters_albedos::2.0[mainbelt] (http://adsabs.harvard.edu/abs/2014ApJ...791..121M)  

1982 Cline (1975 VA)          Discovered 1975-Nov-04 by Helin, E. F. at Palomar
Reference: DISCOVERY.DBLast Updated: 2003-08-29

[ show close-approach data ]
Alternate Designations
 1975 VA = 1936 OO = 1957 LN = 1961 XC = 1961 XK = 1973 AS 
Ephemeris | Orbit Diagram | Orbital Elements | Mission Design | Physical Parameters | Discovery Circumstances | Close-Approach Data ]
ABOUT SSD CREDITS/AWARDS PRIVACY/COPYRIGHT GLOSSARY LINKS
FirstGov 2020-Jan-29 14:41 UT
(server date/time)  
NASA Home Page
Site Manager:   Ryan S. Park
Webmaster  Alan B. Chamberlin